Regional Weather Roundup
Issued by NWS

Home | Current Version | Previous Version | Graphics & Text | Print | Product List | Glossary On
Versions: 1 2 3 4 5 6 7 8 9 10 11 12 13 14 15 16 17 18 19 20 21 22 23 24 25 26 27 28 29 30 31 32 33 34 35 36 37 38 39 40 41 42 43 44 45 46 47 48 49 50
000
ASUS43 KBIS 231410
RWRND

NORTH DAKOTA REGIONAL WEATHER ROUNDUP
NATIONAL WEATHER SERVICE BISMARCK ND
900 AM CDT TUE AUG 23 2016

NOTE: "FAIR" INDICATES FEW OR NO CLOUDS BELOW 12,000 FEET WITH NO
SIGNIFICANT WEATHER AND/OR OBSTRUCTIONS TO VISIBILITY.


NDZ001>003-009>011-017-231500-
NORTHWEST NORTH DAKOTA

CITY           SKY/WX    TMP DP  RH WIND       PRES   REMARKS
WILLISTON      CLOUDY    68  35  29 NW20      29.77R
MINOT          CLOUDY    62  59  90 NW13      29.62F
MINOT AFB      CLOUDY    62  60  93 N14       29.62F
$$

NDZ018>021-031>035-040>046-231500-
SOUTHWEST NORTH DAKOTA

CITY           SKY/WX    TMP DP  RH WIND       PRES   REMARKS
BISMARCK       PTSUNNY   65  63  93 W9        29.64R FOG
DICKINSON      CLOUDY    64  39  39 NW14      29.76R
GARRISON         N/A     63  57  81 NW12      29.64R
HETTINGER ARPT SUNNY     65  41  41 NW26G33   29.75R
$$

NDZ004>008-012>016-024-026-027-054-231500-
NORTHEAST NORTH DAKOTA

CITY           SKY/WX    TMP DP  RH WIND       PRES   REMARKS
GRAND FORKS    CLOUDY    69  63  81 S12       29.62S
GRND FRKS AFB  MOSUNNY   70  63  79 S16       29.62S
DEVILS LAKE    SUNNY     71  65  81 S10       29.61R
$$

NDZ022-023-025-028>030-036>039-047>053-231500-
SOUTHEAST NORTH DAKOTA

CITY           SKY/WX    TMP DP  RH WIND       PRES   REMARKS
FARGO          PTSUNNY   72  61  68 SE20G25   29.70S
JAMESTOWN      PTSUNNY   68  63  84 S22G28    29.64R
$$





USA.gov is the U.S. government's official web portal to all federal, state and local government web resources and services.